| time (UTC) | temp C | wind direction | speed KPH | gust KPH | rain 1hr cm | rain 24hr cm | rain mn cm | humidity % | barometer mb |
| 20260508034115 | 13 | 225 | 0.0 | 4.8 | 0.00 | 0.00 | 0.00 | ||
| 20260508033514 | 13 | 270 | 1.6 | 8.0 | 0.00 | 0.00 | 0.00 | ||
| 20260508032915 | 13 | 270 | 1.6 | 8.0 | 0.00 | 0.00 | 0.00 | ||
| 20260508032314 | 13 | 225 | 1.6 | 6.4 | 0.00 | 0.00 | 0.00 | ||
| 20260508031714 | 13 | 270 | 3.2 | 4.8 | 0.00 | 0.00 | 0.00 | ||
| 20260508030519 | 13 | 270 | 0.0 | 4.8 | 0.00 | 0.00 | 0.00 | ||
| 20260508025918 | 13 | 180 | 0.0 | 4.8 | 0.00 | 0.00 | 0.00 | ||
| 20260508025318 | 13 | 270 | 0.0 | 4.8 | 0.00 | 0.00 | 0.00 | ||
| 20260508024714 | 13 | 225 | 0.0 | 8.0 | 0.00 | 0.00 | 0.00 | ||
| 20260508024114 | 13 | 225 | 0.0 | 4.8 | 0.00 | 0.00 | 0.00 | ||
| 20260508023513 | 13 | 225 | 0.0 | 8.0 | 0.00 | 0.00 | 0.00 | ||
| 20260508022913 | 13 | 270 | 0.0 | 8.0 | 0.00 | 0.00 | 0.00 | ||
| 20260508022314 | 13 | 270 | 4.8 | 8.0 | 0.00 | 0.00 | 0.00 | ||
| 20260508021713 | 13 | 270 | 1.6 | 8.0 | 0.00 | 0.00 | 0.00 | ||
| 20260508020614 | 13 | 180 | 1.6 | 14.5 | 0.00 | 0.00 | 0.00 | ||
| 20260508020014 | 13 | 270 | 1.6 | 14.5 | 0.00 | 0.00 | 0.00 | ||
| 20260508015414 | 13 | 270 | 3.2 | 8.0 | 0.00 | 0.00 | 0.00 | ||
| 20260508014814 | 13 | 270 | 3.2 | 8.0 | 0.00 | 0.00 | 0.00 | ||
| 20260508013513 | 13 | 225 | 3.2 | 9.7 | 0.00 | 0.00 | 0.00 | ||
| 20260508012914 | 13 | 270 | 3.2 | 8.0 | 0.00 | 0.00 | 0.00 | ||
| 20260508012313 | 13 | 225 | 3.2 | 8.0 | 0.00 | 0.00 | 0.00 | ||
| 20260508011714 | 13 | 225 | 3.2 | 8.0 | 0.00 | 0.00 | 0.00 | ||
| 20260508010516 | 13 | 270 | 1.6 | 8.0 | 0.00 | 0.00 | 0.00 | ||
| 20260508005916 | 13 | 180 | 0.0 | 4.8 | 0.00 | 0.00 | 0.00 | ||
| 20260508005315 | 13 | 270 | 3.2 | 4.8 | 0.00 | 0.00 | 0.00 | ||
| 20260508004715 | 13 | 315 | 0.0 | 8.0 | 0.00 | 0.00 | 0.00 | ||
| 20260508004114 | 13 | 270 | 3.2 | 6.4 | 0.00 | 0.00 | 0.00 | ||
| 20260508003514 | 13 | 270 | 1.6 | 9.7 | 0.00 | 0.00 | 0.00 | ||
| 20260508002913 | 13 | 315 | 3.2 | 9.7 | 0.00 | 0.00 | 0.00 | ||
| 20260508002314 | 13 | 225 | 0.0 | 9.7 | 0.00 | 0.00 | 0.00 | ||
| 20260508001713 | 13 | 270 | 1.6 | 9.7 | 0.00 | 0.00 | 0.00 | ||
| 20260508000413 | 13 | 270 | 1.6 | 4.8 | 0.00 | 0.00 | 0.00 | ||
| 20260507235813 | 13 | 225 | 1.6 | 4.8 | 0.00 | 0.00 | 0.00 | ||
| 20260507235213 | 13 | 270 | 1.6 | 4.8 | 0.00 | 0.00 | 0.00 | ||
| 20260507234612 | 13 | 270 | 1.6 | 8.0 | 0.00 | 0.00 | 0.00 | ||
| 20260507234013 | 13 | 225 | 3.2 | 8.0 | 0.00 | 0.00 | 0.00 | ||
| 20260507233413 | 13 | 270 | 3.2 | 8.0 | 0.00 | 0.00 | 0.00 | ||
| 20260507232813 | 13 | 270 | 1.6 | 8.0 | 0.00 | 0.00 | 0.00 | ||
| 20260507232213 | 13 | 225 | 3.2 | 8.0 | 0.00 | 0.00 | 0.00 | ||
| 20260507231614 | 13 | 180 | 0.0 | 8.0 | 0.00 | 0.00 | 0.00 | ||
| 20260507230515 | 13 | 270 | 1.6 | 9.7 | 0.00 | 0.00 | 0.00 | ||
| 20260507225914 | 13 | 270 | 1.6 | 11.3 | 0.00 | 0.00 | 0.00 | ||
| 20260507225314 | 13 | 225 | 1.6 | 8.0 | 0.00 | 0.00 | 0.00 | ||
| 20260507224715 | 13 | 180 | 0.0 | 6.4 | 0.00 | 0.00 | 0.00 | ||
| 20260507224114 | 13 | 270 | 1.6 | 9.7 | 0.00 | 0.00 | 0.00 | ||
| 20260507223513 | 13 | 135 | 0.0 | 9.7 | 0.00 | 0.00 | 0.00 | ||
| 20260507222913 | 14 | 270 | 0.0 | 11.3 | 0.00 | 0.00 | 0.00 | ||
| 20260507222314 | 14 | 270 | 3.2 | 12.9 | 0.00 | 0.00 | 0.00 | ||
| 20260507221713 | 14 | 135 | 1.6 | 16.1 | 0.00 | 0.00 | 0.00 | ||
| 20260507220517 | 14 | 225 | 4.8 | 11.3 | 0.00 | 0.00 | 0.00 | ||
| 20260507215916 | 14 | 225 | 4.8 | 14.5 | 0.00 | 0.00 | 0.00 | ||
| 20260507215315 | 14 | 270 | 3.2 | 14.5 | 0.00 | 0.00 | 0.00 | ||
| 20260507214714 | 14 | 225 | 1.6 | 11.3 | 0.00 | 0.00 | 0.00 | ||
| 20260507214115 | 14 | 225 | 4.8 | 11.3 | 0.00 | 0.00 | 0.00 | ||
| 20260507213514 | 14 | 225 | 1.6 | 11.3 | 0.00 | 0.00 | 0.00 | ||
| 20260507212915 | 14 | 225 | 1.6 | 12.9 | 0.00 | 0.00 | 0.00 | ||
| 20260507212314 | 14 | 225 | 1.6 | 8.0 | 0.00 | 0.00 | 0.00 | ||
| 20260507211714 | 14 | 270 | 1.6 | 9.7 | 0.00 | 0.00 | 0.00 | ||
| 20260507210516 | 14 | 225 | 3.2 | 14.5 | 0.00 | 0.00 | 0.00 | ||
| 20260507205917 | 14 | 270 | 3.2 | 12.9 | 0.00 | 0.00 | 0.00 | ||
| 20260507205316 | 14 | 225 | 4.8 | 12.9 | 0.00 | 0.00 | 0.00 | ||
| 20260507204716 | 15 | 270 | 9.7 | 12.9 | 0.00 | 0.00 | 0.00 | ||
| 20260507204116 | 15 | 225 | 4.8 | 14.5 | 0.00 | 0.00 | 0.00 | ||
| 20260507203515 | 15 | 225 | 4.8 | 14.5 | 0.00 | 0.00 | 0.00 | ||
| 20260507202915 | 15 | 180 | 3.2 | 14.5 | 0.00 | 0.00 | 0.00 | ||
| 20260507202314 | 15 | 270 | 4.8 | 16.1 | 0.00 | 0.00 | 0.00 | ||
| 20260507201715 | 15 | 225 | 1.6 | 16.1 | 0.00 | 0.00 | 0.00 | ||
| 20260507200418 | 15 | 225 | 4.8 | 14.5 | 0.00 | 0.00 | 0.00 | ||
| 20260507195817 | 15 | 225 | 3.2 | 14.5 | 0.00 | 0.00 | 0.00 | ||
| 20260507195217 | 15 | 360 | 1.6 | 11.3 | 0.00 | 0.00 | 0.00 | ||
| 20260507194616 | 15 | 270 | 6.4 | 11.3 | 0.00 | 0.00 | 0.00 | ||
| 20260507194016 | 15 | 225 | 1.6 | 11.3 | 0.00 | 0.00 | 0.00 | ||
| 20260507193416 | 15 | 225 | 3.2 | 11.3 | 0.00 | 0.00 | 0.00 | ||
| 20260507192815 | 15 | 270 | 1.6 | 11.3 | 0.00 | 0.00 | 0.00 | ||
| 20260507192215 | 15 | 45 | 0.0 | 20.9 | 0.00 | 0.00 | 0.00 | ||
| 20260507191615 | 16 | 180 | 3.2 | 16.1 | 0.00 | 0.00 | 0.00 | ||
| 20260507190416 | 16 | 225 | 4.8 | 16.1 | 0.00 | 0.00 | 0.00 | ||
| 20260507185814 | 16 | 225 | 0.0 | 14.5 | 0.00 | 0.00 | 0.00 | ||
| 20260507185215 | 16 | 225 | 11.3 | 14.5 | 0.00 | 0.00 | 0.00 | ||
| 20260507184615 | 16 | 225 | 4.8 | 14.5 | 0.00 | 0.00 | 0.00 | ||
| 20260507184015 | 16 | 135 | 1.6 | 11.3 | 0.00 | 0.00 | 0.00 | ||
| 20260507183414 | 16 | 270 | 8.0 | 14.5 | 0.00 | 0.00 | 0.00 | ||
| 20260507182814 | 16 | 180 | 3.2 | 14.5 | 0.00 | 0.00 | 0.00 | ||
| 20260507182213 | 16 | 270 | 1.6 | 17.7 | 0.00 | 0.00 | 0.00 | ||
| 20260507181612 | 17 | 225 | 6.4 | 17.7 | 0.00 | 0.00 | 0.00 | ||
| 20260507180415 | 17 | 225 | 11.3 | 14.5 | 0.00 | 0.00 | 0.00 | ||
| 20260507175815 | 17 | 270 | 9.7 | 14.5 | 0.00 | 0.00 | 0.00 | ||
| 20260507175215 | 16 | 270 | 4.8 | 14.5 | 0.00 | 0.00 | 0.00 | ||
| 20260507174616 | 16 | 180 | 3.2 | 14.5 | 0.00 | 0.00 | 0.00 | ||
| 20260507174015 | 16 | 270 | 11.3 | 14.5 | 0.00 | 0.00 | 0.00 | ||
| 20260507173415 | 16 | 270 | 3.2 | 11.3 | 0.00 | 0.00 | 0.00 | ||
| 20260507172814 | 16 | 180 | 1.6 | 16.1 | 0.00 | 0.00 | 0.00 | ||
| 20260507172214 | 16 | 225 | 8.0 | 16.1 | 0.00 | 0.00 | 0.00 | ||
| 20260507171614 | 16 | 270 | 3.2 | 14.5 | 0.00 | 0.00 | 0.00 | ||
| 20260507170517 | 16 | 180 | 3.2 | 11.3 | 0.00 | 0.00 | 0.00 | ||
| 20260507165920 | 16 | 270 | 6.4 | 11.3 | 0.00 | 0.00 | 0.00 | ||
| 20260507165317 | 16 | 225 | 1.6 | 11.3 | 0.00 | 0.00 | 0.00 | ||
| 20260507164717 | 16 | 315 | 1.6 | 11.3 | 0.00 | 0.00 | 0.00 | ||
| 20260507164116 | 16 | 225 | 3.2 | 11.3 | 0.00 | 0.00 | 0.00 | ||
| 20260507163517 | 16 | 270 | 1.6 | 9.7 | 0.00 | 0.00 | 0.00 | ||
| 20260507162916 | 16 | 270 | 1.6 | 4.8 | 0.00 | 0.00 | 0.00 | ||
| 20260507162314 | 16 | 135 | 0.0 | 8.0 | 0.00 | 0.00 | 0.00 | ||
| 20260507161713 | 16 | 180 | 0.0 | 8.0 | 0.00 | 0.00 | 0.00 | ||
| 20260507160415 | 16 | 270 | 3.2 | 9.7 | 0.00 | 0.00 | 0.00 | ||
| 20260507155815 | 16 | 270 | 0.0 | 4.8 | 0.00 | 0.00 | 0.00 | ||
| 20260507155214 | 16 | 225 | 1.6 | 8.0 | 0.00 | 0.00 | 0.00 | ||
| 20260507154615 | 16 | 180 | 1.6 | 9.7 | 0.00 | 0.00 | 0.00 | ||
| 20260507154014 | 16 | 180 | 1.6 | 9.7 | 0.00 | 0.00 | 0.00 | ||
| 20260507153414 | 16 | 225 | 1.6 | 9.7 | 0.00 | 0.00 | 0.00 | ||
| 20260507152815 | 16 | 180 | 3.2 | 9.7 | 0.00 | 0.00 | 0.00 | ||
| 20260507152214 | 15 | 270 | 3.2 | 9.7 | 0.00 | 0.00 | 0.00 | ||
| 20260507151614 | 15 | 270 | 4.8 | 12.9 | 0.00 | 0.00 | 0.00 | ||
| 20260507150515 | 15 | 225 | 3.2 | 11.3 | 0.00 | 0.00 | 0.00 | ||
| 20260507145914 | 16 | 225 | 3.2 | 11.3 | 0.00 | 0.00 | 0.00 | ||
| 20260507145315 | 15 | 225 | 0.0 | 9.7 | 0.00 | 0.00 | 0.00 | ||
| 20260507144714 | 15 | 270 | 3.2 | 9.7 | 0.00 | 0.00 | 0.00 | ||
| 20260507144114 | 15 | 225 | 8.0 | 14.5 | 0.00 | 0.00 | 0.00 | ||
| 20260507143513 | 15 | 180 | 1.6 | 14.5 | 0.00 | 0.00 | 0.00 | ||
| 20260507142913 | 15 | 225 | 1.6 | 9.7 | 0.00 | 0.00 | 0.00 | ||
| 20260507142314 | 15 | 270 | 3.2 | 8.0 | 0.00 | 0.00 | 0.00 | ||
| 20260507141713 | 15 | 225 | 3.2 | 8.0 | 0.00 | 0.00 | 0.00 | ||
| 20260507140416 | 15 | 225 | 1.6 | 9.7 | 0.00 | 0.00 | 0.00 | ||
| 20260507135817 | 15 | 270 | 3.2 | 9.7 | 0.00 | 0.00 | 0.00 | ||
| 20260507135216 | 15 | 225 | 1.6 | 9.7 | 0.00 | 0.00 | 0.00 | ||
| 20260507134617 | 15 | 225 | 1.6 | 4.8 | 0.00 | 0.00 | 0.00 | ||
| 20260507134017 | 15 | 180 | 3.2 | 4.8 | 0.00 | 0.00 | 0.00 | ||
| 20260507133416 | 15 | 180 | 0.0 | 4.8 | 0.00 | 0.00 | 0.00 | ||
| 20260507132815 | 15 | 180 | 0.0 | 8.0 | 0.00 | 0.00 | 0.00 | ||
| 20260507132215 | 15 | 225 | 3.2 | 8.0 | 0.00 | 0.00 | 0.00 | ||
| 20260507131615 | 15 | 225 | 1.6 | 9.7 | 0.00 | 0.00 | 0.00 | ||
| 20260507130419 | 15 | 180 | 1.6 | 8.0 | 0.00 | 0.00 | 0.00 | ||
| 20260507125818 | 15 | 225 | 1.6 | 9.7 | 0.00 | 0.00 | 0.00 | ||
| 20260507125219 | 15 | 180 | 1.6 | 9.7 | 0.00 | 0.00 | 0.00 | ||
| 20260507124617 | 15 | 270 | 3.2 | 8.0 | 0.00 | 0.00 | 0.00 | ||
| 20260507124016 | 15 | 315 | 1.6 | 16.1 | 0.00 | 0.00 | 0.00 | ||
| 20260507123413 | 15 | 180 | 1.6 | 16.1 | 0.00 | 0.00 | 0.00 | ||
| 20260507122813 | 15 | 45 | 3.2 | 12.9 | 0.00 | 0.00 | 0.00 | ||
| 20260507122213 | 15 | 225 | 1.6 | 12.9 | 0.00 | 0.00 | 0.00 | ||
| 20260507121613 | 15 | 225 | 8.0 | 12.9 | 0.00 | 0.00 | 0.00 | ||
| 20260507120514 | 15 | 315 | 0.0 | 12.9 | 0.00 | 0.00 | 0.00 | ||
| 20260507115914 | 15 | 180 | 8.0 | 11.3 | 0.00 | 0.00 | 0.00 | ||
| 20260507115314 | 15 | 180 | 0.0 | 8.0 | 0.00 | 0.00 | 0.00 | ||
| 20260507114715 | 15 | 225 | 3.2 | 8.0 | 0.00 | 0.00 | 0.00 | ||
| 20260507114113 | 15 | 225 | 1.6 | 8.0 | 0.00 | 0.00 | 0.00 | ||
| 20260507113514 | 15 | 180 | 1.6 | 8.0 | 0.00 | 0.00 | 0.00 | ||
| 20260507112913 | 15 | 225 | 3.2 | 8.0 | 0.00 | 0.00 | 0.00 | ||
| 20260507112313 | 15 | 180 | 3.2 | 9.7 | 0.00 | 0.00 | 0.00 | ||
| 20260507111713 | 16 | 180 | 4.8 | 11.3 | 0.00 | 0.00 | 0.00 | ||
| 20260507110514 | 16 | 225 | 4.8 | 11.3 | 0.00 | 0.00 | 0.00 | ||
| 20260507105914 | 16 | 225 | 3.2 | 11.3 | 0.00 | 0.00 | 0.00 | ||
| 20260507105314 | 15 | 225 | 0.0 | 11.3 | 0.00 | 0.00 | 0.00 | ||
| 20260507104713 | 15 | 180 | 1.6 | 14.5 | 0.00 | 0.00 | 0.00 | ||
| 20260507104113 | 15 | 180 | 3.2 | 14.5 | 0.00 | 0.00 | 0.00 | ||
| 20260507103513 | 15 | 180 | 1.6 | 14.5 | 0.00 | 0.00 | 0.00 | ||
| 20260507102214 | 15 | 225 | 3.2 | 16.1 | 0.00 | 0.00 | 0.00 | ||
| 20260507101615 | 15 | 270 | 3.2 | 11.3 | 0.00 | 0.00 | 0.00 | ||
| 20260507100517 | 15 | 225 | 4.8 | 9.7 | 0.00 | 0.00 | 0.00 | ||
| 20260507095916 | 15 | 225 | 4.8 | 11.3 | 0.00 | 0.00 | 0.00 | ||
| 20260507095316 | 15 | 225 | 1.6 | 11.3 | 0.00 | 0.00 | 0.00 | ||
| 20260507094716 | 15 | 270 | 4.8 | 11.3 | 0.00 | 0.00 | 0.00 | ||
| 20260507094115 | 15 | 225 | 4.8 | 11.3 | 0.00 | 0.00 | 0.00 | ||
| 20260507093520 | 16 | 270 | 8.0 | 11.3 | 0.00 | 0.00 | 0.00 | ||
| 20260507092914 | 16 | 270 | 3.2 | 16.1 | 0.00 | 0.00 | 0.00 | ||
| 20260507092315 | 16 | 180 | 3.2 | 16.1 | 0.00 | 0.00 | 0.00 | ||
| 20260507091714 | 16 | 270 | 4.8 | 11.3 | 0.00 | 0.00 | 0.00 | ||
| 20260507090515 | 16 | 225 | 4.8 | 9.7 | 0.00 | 0.00 | 0.00 | ||
| 20260507085914 | 16 | 225 | 3.2 | 4.8 | 0.00 | 0.00 | 0.00 | ||
| 20260507085315 | 16 | 180 | 0.0 | 4.8 | 0.00 | 0.00 | 0.00 | ||
| 20260507084714 | 16 | 225 | 1.6 | 4.8 | 0.00 | 0.00 | 0.00 | ||
| 20260507084114 | 16 | 270 | 3.2 | 3.2 | 0.00 | 0.00 | 0.00 | ||
| 20260507082813 | 16 | 270 | 0.0 | 1.6 | 0.00 | 0.00 | 0.00 | ||
| 20260507082213 | 16 | 360 | 0.0 | 1.6 | 0.00 | 0.00 | 0.00 | ||
| 20260507081614 | 16 | 90 | 0.0 | 1.6 | 0.00 | 0.00 | 0.00 | ||
| 20260507080515 | 16 | 90 | 0.0 | 3.2 | 0.00 | 0.00 | 0.00 | ||
| 20260507075915 | 16 | 90 | 0.0 | 3.2 | 0.00 | 0.00 | 0.00 | ||
| 20260507075315 | 16 | 90 | 1.6 | 3.2 | 0.00 | 0.00 | 0.00 | ||
| 20260507074715 | 16 | 90 | 3.2 | 3.2 | 0.00 | 0.00 | 0.00 | ||
| 20260507074114 | 16 | 90 | 0.0 | 4.8 | 0.00 | 0.00 | 0.00 | ||
| 20260507073515 | 16 | 90 | 0.0 | 4.8 | 0.00 | 0.00 | 0.00 | ||
| 20260507072914 | 16 | 90 | 0.0 | 1.6 | 0.00 | 0.00 | 0.00 | ||
| 20260507072313 | 16 | 90 | 0.0 | 1.6 | 0.00 | 0.00 | 0.00 | ||
| 20260507070514 | 16 | 90 | 0.0 | 3.2 | 0.00 | 0.00 | 0.00 | ||
| 20260507065914 | 16 | 135 | 0.0 | 4.8 | 0.00 | 0.00 | 0.00 | ||
| 20260507065315 | 16 | 90 | 1.6 | 8.0 | 0.00 | 0.00 | 0.00 | ||
| 20260507064714 | 16 | 90 | 1.6 | 8.0 | 0.00 | 0.00 | 0.00 | ||
| 20260507064114 | 16 | 90 | 3.2 | 8.0 | 0.00 | 0.00 | 0.00 | ||
| 20260507063514 | 16 | 90 | 1.6 | 6.4 | 0.00 | 0.00 | 0.00 | ||
| 20260507062913 | 16 | 90 | 3.2 | 8.0 | 0.00 | 0.00 | 0.00 | ||
| 20260507061613 | 16 | 90 | 1.6 | 8.0 | 0.00 | 0.00 | 0.00 | ||
| 20260507060416 | 17 | 45 | 3.2 | 4.8 | 0.00 | 0.00 | 0.00 | ||
| 20260507055815 | 17 | 90 | 0.0 | 4.8 | 0.00 | 0.00 | 0.00 | ||
| 20260507055214 | 16 | 135 | 0.0 | 4.8 | 0.00 | 0.00 | 0.00 | ||
| 20260507054614 | 16 | 90 | 1.6 | 4.8 | 0.00 | 0.00 | 0.00 | ||
| 20260507054014 | 17 | 90 | 0.0 | 3.2 | 0.00 | 0.00 | 0.00 | ||
| 20260507053415 | 16 | 90 | 0.0 | 1.6 | 0.00 | 0.00 | 0.00 | ||
| 20260507052814 | 16 | 90 | 0.0 | 3.2 | 0.00 | 0.00 | 0.00 | ||
| 20260507052215 | 16 | 90 | 1.6 | 3.2 | 0.00 | 0.00 | 0.00 | ||
| 20260507051614 | 16 | 90 | 0.0 | 3.2 | 0.00 | 0.00 | 0.00 | ||
| 20260507050416 | 16 | 90 | 1.6 | 3.2 | 0.00 | 0.00 | 0.00 | ||
| 20260507045816 | 16 | 0 | 0.0 | 4.8 | 0.00 | 0.00 | 0.00 | ||
| 20260507045217 | 16 | 90 | 0.0 | 3.2 | 0.00 | 0.00 | 0.00 | ||
| 20260507044616 | 16 | 135 | 0.0 | 3.2 | 0.00 | 0.00 | 0.00 | ||
| 20260507044017 | 16 | 45 | 0.0 | 1.6 | 0.00 | 0.00 | 0.00 | ||
| 20260507043416 | 16 | 90 | 0.0 | 3.2 | 0.00 | 0.00 | 0.00 | ||
| 20260507042816 | 16 | 135 | 0.0 | 4.8 | 0.00 | 0.00 | 0.00 | ||
| 20260507042215 | 16 | 135 | 0.0 | 8.0 | 0.00 | 0.00 | 0.00 | ||
| 20260507041615 | 16 | 90 | 3.2 | 6.4 | 0.00 | 0.00 | 0.00 | ||
| 20260507040614 | 16 | 90 | 1.6 | 9.7 | 0.00 | 0.00 | 0.00 | ||
| 20260507040015 | 16 | 45 | 1.6 | 12.9 | 0.00 | 0.00 | 0.00 | ||
| 20260507035415 | 16 | 135 | 3.2 | 12.9 | 0.00 | 0.00 | 0.00 | ||
| 20260507034815 | 16 | 90 | 4.8 | 16.1 | 0.00 | 0.00 | 0.00 |